| time (UTC) | temp F | wind direction | speed knots | gust knots | rain 1hr in | rain 24hr in | rain mn in | humidity % | barometer mb |
| 20260831080004 | 60 | 148 | 3.5 | 6.1 | 0.00 | 0.18 | 0.01 | 95 | 1003.6 |
| 20260831075404 | 60 | 153 | 3.5 | 7.0 | 0.00 | 0.18 | 0.01 | 95 | 1003.6 |
| 20260831074504 | 60 | 148 | 3.5 | 6.1 | 0.00 | 0.18 | 0.01 | 95 | 1003.7 |
| 20260831073604 | 59 | 150 | 2.6 | 6.1 | 0.00 | 0.18 | 0.01 | 96 | 1003.7 |
| 20260831072704 | 59 | 149 | 3.5 | 6.1 | 0.00 | 0.18 | 0.01 | 96 | 1003.8 |
| 20260831071825 | 59 | 152 | 4.3 | 7.0 | 0.00 | 0.18 | 0.01 | 96 | 1003.8 |
| 20260831070904 | 58 | 155 | 4.3 | 7.8 | 0.00 | 0.19 | 0.01 | 96 | 1003.8 |
| 20260831070004 | 58 | 149 | 3.5 | 7.0 | 0.00 | 0.19 | 0.01 | 96 | 1003.8 |
| 20260831065404 | 58 | 151 | 2.6 | 6.1 | 0.00 | 0.19 | 0.01 | 96 | 1003.8 |
| 20260831064504 | 58 | 160 | 4.3 | 8.7 | 0.00 | 0.20 | 0.01 | 96 | 1003.8 |
| 20260831063604 | 58 | 166 | 4.3 | 10.4 | 0.00 | 0.20 | 0.01 | 96 | 1003.9 |
| 20260831062704 | 58 | 154 | 3.5 | 7.0 | 0.00 | 0.20 | 0.01 | 97 | 1003.8 |
| 20260831061825 | 58 | 154 | 3.5 | 8.7 | 0.00 | 0.21 | 0.01 | 97 | 1003.8 |
| 20260831060904 | 58 | 155 | 5.2 | 9.6 | 0.00 | 0.23 | 0.01 | 96 | 1003.8 |
| 20260831060004 | 58 | 152 | 3.5 | 7.0 | 0.00 | 0.24 | 0.01 | 97 | 1003.9 |
| 20260831055404 | 58 | 140 | 2.6 | 6.1 | 0.00 | 0.25 | 0.01 | 97 | 1003.9 |
| 20260831054504 | 58 | 153 | 3.5 | 6.1 | 0.00 | 0.25 | 0.01 | 97 | 1003.9 |
| 20260831053604 | 58 | 163 | 3.5 | 7.0 | 0.00 | 0.26 | 0.01 | 97 | 1003.9 |
| 20260831052725 | 58 | 146 | 2.6 | 6.1 | 0.00 | 0.27 | 0.01 | 97 | 1003.9 |
| 20260831051804 | 58 | 139 | 1.7 | 5.2 | 0.00 | 0.27 | 0.01 | 97 | 1003.9 |
| 20260831050904 | 58 | 138 | 2.6 | 3.5 | 0.00 | 0.27 | 0.01 | 97 | 1003.9 |
| 20260831050004 | 57 | 148 | 3.5 | 5.2 | 0.00 | 0.27 | 0.01 | 96 | 1003.9 |
| 20260831045404 | 57 | 149 | 2.6 | 5.2 | 0.00 | 0.27 | 0.01 | 97 | 1003.9 |
| 20260831044504 | 57 | 147 | 2.6 | 5.2 | 0.00 | 0.27 | 0.01 | 97 | 1003.9 |
| 20260831043604 | 57 | 143 | 2.6 | 4.3 | 0.00 | 0.27 | 0.01 | 97 | 1003.9 |
| 20260831042704 | 57 | 144 | 1.7 | 3.5 | 0.00 | 0.27 | 0.01 | 97 | 1003.9 |
| 20260831041804 | 57 | 146 | 2.6 | 5.2 | 0.00 | 0.27 | 0.01 | 97 | 1004.0 |
| 20260831040004 | 57 | 141 | 3.5 | 6.1 | 0.00 | 0.27 | 0.01 | 96 | 1004.0 |
| 20260831035404 | 57 | 145 | 2.6 | 6.1 | 0.00 | 0.27 | 0.01 | 97 | 1004.0 |
| 20260831034504 | 57 | 142 | 2.6 | 6.1 | 0.00 | 0.27 | 0.01 | 96 | 1003.9 |
| 20260831033604 | 57 | 143 | 2.6 | 5.2 | 0.00 | 0.27 | 0.01 | 96 | 1003.9 |
| 20260831032704 | 57 | 155 | 2.6 | 6.1 | 0.00 | 0.27 | 0.01 | 96 | 1003.8 |
| 20260831031804 | 57 | 151 | 3.5 | 7.8 | 0.00 | 0.27 | 0.01 | 96 | 1003.8 |
| 20260831030904 | 57 | 154 | 2.6 | 5.2 | 0.00 | 0.27 | 0.01 | 96 | 1003.9 |
| 20260831030004 | 57 | 151 | 2.6 | 5.2 | 0.00 | 0.27 | 0.01 | 96 | 1003.9 |
| 20260831025404 | 57 | 147 | 2.6 | 5.2 | 0.00 | 0.27 | 0.01 | 96 | 1003.9 |
| 20260831024504 | 57 | 161 | 1.7 | 4.3 | 0.00 | 0.27 | 0.01 | 96 | 1004.0 |
| 20260831023604 | 57 | 170 | 1.7 | 5.2 | 0.00 | 0.27 | 0.01 | 96 | 1003.9 |
| 20260831022704 | 57 | 148 | 3.5 | 7.0 | 0.00 | 0.27 | 0.01 | 96 | 1003.9 |
| 20260831021804 | 57 | 161 | 2.6 | 7.0 | 0.00 | 0.27 | 0.01 | 96 | 1003.9 |
| 20260831020904 | 57 | 157 | 2.6 | 7.0 | 0.00 | 0.27 | 0.01 | 96 | 1003.9 |
| 20260831020004 | 57 | 155 | 3.5 | 6.1 | 0.00 | 0.27 | 0.01 | 96 | 1003.8 |
| 20260831015404 | 57 | 159 | 3.5 | 7.0 | 0.00 | 0.27 | 0.01 | 96 | 1003.9 |
| 20260831014504 | 57 | 159 | 3.5 | 7.0 | 0.00 | 0.27 | 0.01 | 96 | 1004.0 |
| 20260831013603 | 57 | 159 | 3.5 | 6.1 | 0.01 | 0.27 | 0.01 | 96 | 1003.9 |
| 20260831012725 | 57 | 156 | 2.6 | 7.0 | 0.01 | 0.27 | 0.01 | 96 | 1003.9 |
| 20260831011804 | 57 | 167 | 4.3 | 7.8 | 0.01 | 0.27 | 0.01 | 96 | 1004.0 |
| 20260831010904 | 57 | 169 | 2.6 | 7.0 | 0.01 | 0.27 | 0.01 | 96 | 1003.9 |
| 20260831010004 | 57 | 137 | 1.7 | 3.5 | 0.01 | 0.27 | 0.01 | 96 | 1003.9 |
| 20260831005404 | 57 | 137 | 0.9 | 2.6 | 0.01 | 0.27 | 0.01 | 96 | 1003.9 |
| 20260831004525 | 57 | 137 | 0.9 | 2.6 | 0.01 | 0.27 | 0.01 | 96 | 1003.9 |
| 20260831003604 | 57 | 137 | 0.9 | 1.7 | 0.00 | 0.26 | 0.00 | 96 | 1003.9 |
| 20260831002704 | 58 | 137 | 1.7 | 2.6 | 0.00 | 0.26 | 0.00 | 96 | 1003.9 |
| 20260831001804 | 58 | 137 | 1.7 | 3.5 | 0.00 | 0.26 | 0.00 | 96 | 1003.9 |
| 20260831000904 | 58 | 137 | 1.7 | 2.6 | 0.00 | 0.26 | 0.00 | 96 | 1004.0 |
| 20260831000004 | 58 | 137 | 1.7 | 3.5 | 0.00 | 0.26 | 0.00 | 96 | 1003.9 |
| 20260830235404 | 58 | 137 | 0.9 | 2.6 | 0.00 | 0.26 | 0.00 | 96 | 1003.9 |
| 20260830234525 | 58 | 137 | 0.9 | 2.6 | 0.00 | 0.26 | 0.00 | 96 | 1003.9 |
| 20260830233604 | 58 | 137 | 0.9 | 3.5 | 0.00 | 0.26 | 0.00 | 96 | 1003.9 |
| 20260830232704 | 58 | 137 | 1.7 | 3.5 | 0.00 | 0.26 | 0.00 | 96 | 1003.9 |
| 20260830231804 | 58 | 137 | 1.7 | 3.5 | 0.00 | 0.26 | 0.00 | 96 | 1004.0 |
| 20260830230904 | 58 | 137 | 1.7 | 3.5 | 0.00 | 0.26 | 0.00 | 96 | 1004.0 |
| 20260830230004 | 58 | 137 | 1.7 | 2.6 | 0.00 | 0.26 | 0.00 | 96 | 1004.0 |
| 20260830225404 | 58 | 137 | 1.7 | 2.6 | 0.00 | 0.26 | 0.00 | 96 | 1004.0 |
| 20260830224503 | 58 | 137 | 1.7 | 3.5 | 0.00 | 0.26 | 0.00 | 96 | 1003.9 |
| 20260830223625 | 58 | 137 | 1.7 | 3.5 | 0.00 | 0.26 | 0.00 | 96 | 1003.9 |
| 20260830222704 | 58 | 137 | 1.7 | 3.5 | 0.00 | 0.26 | 0.00 | 96 | 1003.9 |
| 20260830221804 | 58 | 136 | 1.7 | 3.5 | 0.00 | 0.26 | 0.00 | 96 | 1003.9 |
| 20260830220904 | 58 | 136 | 1.7 | 3.5 | 0.00 | 0.26 | 0.00 | 95 | 1003.9 |
| 20260830220004 | 58 | 151 | 1.7 | 4.3 | 0.00 | 0.26 | 0.00 | 96 | 1003.9 |
| 20260830215404 | 58 | 166 | 2.6 | 4.3 | 0.00 | 0.26 | 0.00 | 95 | 1003.8 |
| 20260830214504 | 59 | 164 | 2.6 | 4.3 | 0.00 | 0.26 | 0.00 | 95 | 1003.9 |
| 20260830213625 | 59 | 165 | 2.6 | 6.1 | 0.00 | 0.26 | 0.00 | 95 | 1003.9 |
| 20260830212703 | 59 | 171 | 2.6 | 6.1 | 0.00 | 0.26 | 0.00 | 96 | 1004.0 |
| 20260830211803 | 59 | 173 | 3.5 | 6.1 | 0.00 | 0.26 | 0.00 | 96 | 1004.0 |
| 20260830210904 | 59 | 166 | 4.3 | 7.0 | 0.00 | 0.26 | 0.00 | 96 | 1003.9 |
| 20260830210026 | 59 | 169 | 3.5 | 7.0 | 0.00 | 0.26 | 0.00 | 95 | 1003.8 |
| 20260830205403 | 59 | 169 | 3.5 | 6.1 | 0.00 | 0.26 | 0.26 | 95 | 1003.8 |
| 20260830204525 | 59 | 157 | 4.3 | 7.8 | 0.00 | 0.26 | 0.26 | 95 | 1003.8 |
| 20260830203603 | 59 | 160 | 3.5 | 7.8 | 0.00 | 0.26 | 0.26 | 95 | 1003.7 |
| 20260830202725 | 59 | 156 | 4.3 | 7.8 | 0.01 | 0.26 | 0.26 | 95 | 1003.7 |
| 20260830201824 | 59 | 158 | 5.2 | 8.7 | 0.05 | 0.26 | 0.26 | 95 | 1003.6 |
| 20260830200903 | 59 | 148 | 4.3 | 8.7 | 0.06 | 0.26 | 0.26 | 95 | 1003.6 |
| 20260830200004 | 59 | 149 | 4.3 | 9.6 | 0.10 | 0.26 | 0.26 | 95 | 1003.6 |
| 20260830195403 | 59 | 150 | 4.3 | 9.6 | 0.11 | 0.26 | 0.26 | 95 | 1003.6 |
| 20260830194525 | 59 | 149 | 5.2 | 9.6 | 0.14 | 0.26 | 0.26 | 95 | 1003.6 |
| 20260830193603 | 59 | 145 | 4.3 | 7.8 | 0.15 | 0.26 | 0.26 | 94 | 1003.6 |
| 20260830192703 | 59 | 148 | 5.2 | 9.6 | 0.15 | 0.25 | 0.25 | 94 | 1003.6 |
| 20260830191824 | 59 | 141 | 5.2 | 8.7 | 0.11 | 0.20 | 0.20 | 94 | 1003.6 |
| 20260830190903 | 59 | 140 | 5.2 | 9.6 | 0.10 | 0.19 | 0.19 | 93 | 1003.5 |
| 20260830190004 | 59 | 142 | 5.2 | 8.7 | 0.06 | 0.15 | 0.15 | 93 | 1003.6 |
| 20260830185403 | 59 | 142 | 4.3 | 9.6 | 0.05 | 0.14 | 0.14 | 93 | 1003.6 |
| 20260830184504 | 60 | 145 | 3.5 | 7.0 | 0.02 | 0.11 | 0.11 | 92 | 1003.6 |
| 20260830183604 | 60 | 147 | 3.5 | 7.0 | 0.01 | 0.10 | 0.10 | 92 | 1003.7 |
| 20260830182704 | 60 | 148 | 4.3 | 7.0 | 0.00 | 0.09 | 0.09 | 92 | 1003.7 |
| 20260830181803 | 60 | 149 | 4.3 | 8.7 | 0.00 | 0.09 | 0.09 | 91 | 1003.7 |
| 20260830180904 | 60 | 150 | 5.2 | 8.7 | 0.00 | 0.09 | 0.09 | 91 | 1003.7 |
| 20260830180004 | 60 | 147 | 4.3 | 7.0 | 0.00 | 0.09 | 0.09 | 91 | 1003.7 |
| 20260830175425 | 60 | 147 | 4.3 | 8.7 | 0.00 | 0.09 | 0.09 | 91 | 1003.7 |
| 20260830174503 | 61 | 149 | 5.2 | 8.7 | 0.00 | 0.09 | 0.09 | 90 | 1003.7 |
| 20260830173603 | 61 | 145 | 4.3 | 9.6 | 0.00 | 0.09 | 0.09 | 90 | 1003.7 |
| 20260830172703 | 61 | 144 | 4.3 | 10.4 | 0.00 | 0.09 | 0.09 | 90 | 1003.6 |
| 20260830171803 | 61 | 146 | 4.3 | 10.4 | 0.00 | 0.09 | 0.09 | 90 | 1003.6 |
| 20260830170903 | 61 | 146 | 4.3 | 7.8 | 0.00 | 0.09 | 0.09 | 90 | 1003.6 |
| 20260830170003 | 61 | 143 | 6.1 | 12.2 | 0.00 | 0.09 | 0.09 | 89 | 1003.5 |
| 20260830165403 | 61 | 142 | 5.2 | 12.2 | 0.00 | 0.09 | 0.09 | 89 | 1003.5 |
| 20260830164503 | 62 | 142 | 5.2 | 9.6 | 0.00 | 0.09 | 0.09 | 89 | 1003.5 |
| 20260830163604 | 62 | 143 | 5.2 | 10.4 | 0.00 | 0.09 | 0.09 | 89 | 1003.5 |
| 20260830162724 | 62 | 146 | 5.2 | 9.6 | 0.00 | 0.09 | 0.09 | 88 | 1003.6 |
| 20260830161803 | 62 | 141 | 5.2 | 9.6 | 0.00 | 0.09 | 0.09 | 88 | 1003.5 |
| 20260830160924 | 62 | 143 | 4.3 | 8.7 | 0.00 | 0.09 | 0.09 | 88 | 1003.5 |
| 20260830160003 | 62 | 141 | 5.2 | 8.7 | 0.00 | 0.09 | 0.09 | 88 | 1003.5 |
| 20260830155403 | 62 | 143 | 5.2 | 11.3 | 0.00 | 0.09 | 0.09 | 87 | 1003.6 |
| 20260830154504 | 62 | 152 | 7.0 | 13.9 | 0.00 | 0.09 | 0.09 | 87 | 1003.5 |
| 20260830153625 | 62 | 151 | 6.1 | 12.2 | 0.00 | 0.09 | 0.09 | 87 | 1003.6 |
| 20260830152703 | 63 | 152 | 7.0 | 13.9 | 0.00 | 0.09 | 0.09 | 87 | 1003.7 |
| 20260830151803 | 63 | 153 | 7.0 | 13.0 | 0.00 | 0.09 | 0.09 | 87 | 1003.7 |
| 20260830150903 | 63 | 144 | 4.3 | 11.3 | 0.00 | 0.09 | 0.09 | 87 | 1003.7 |
| 20260830150004 | 63 | 142 | 6.1 | 12.2 | 0.00 | 0.09 | 0.09 | 87 | 1003.8 |
| 20260830145424 | 63 | 145 | 6.1 | 11.3 | 0.00 | 0.09 | 0.09 | 87 | 1003.9 |
| 20260830144503 | 63 | 149 | 7.0 | 12.2 | 0.00 | 0.09 | 0.09 | 87 | 1003.9 |
| 20260830143603 | 63 | 155 | 5.2 | 11.3 | 0.00 | 0.09 | 0.09 | 88 | 1003.8 |
| 20260830142703 | 63 | 153 | 7.0 | 12.2 | 0.00 | 0.09 | 0.09 | 88 | 1003.9 |
| 20260830141803 | 63 | 150 | 7.0 | 13.0 | 0.00 | 0.09 | 0.09 | 87 | 1003.9 |
| 20260830140903 | 63 | 152 | 7.0 | 14.8 | 0.00 | 0.09 | 0.09 | 87 | 1003.8 |
| 20260830140025 | 63 | 151 | 8.7 | 16.5 | 0.00 | 0.09 | 0.09 | 88 | 1003.8 |
| 20260830135424 | 63 | 156 | 7.8 | 16.5 | 0.00 | 0.09 | 0.09 | 88 | 1003.9 |
| 20260830134504 | 63 | 153 | 7.0 | 14.8 | 0.00 | 0.09 | 0.09 | 88 | 1003.9 |
| 20260830133603 | 62 | 157 | 7.0 | 12.2 | 0.00 | 0.09 | 0.09 | 89 | 1003.9 |
| 20260830132724 | 62 | 147 | 6.1 | 13.0 | 0.00 | 0.09 | 0.09 | 90 | 1003.8 |
| 20260830131803 | 62 | 145 | 7.8 | 13.9 | 0.00 | 0.09 | 0.09 | 90 | 1003.8 |
| 20260830130904 | 62 | 143 | 5.2 | 10.4 | 0.00 | 0.09 | 0.09 | 91 | 1003.8 |
| 20260830130003 | 62 | 150 | 6.1 | 12.2 | 0.00 | 0.09 | 0.09 | 90 | 1003.9 |
| 20260830125404 | 62 | 150 | 7.8 | 14.8 | 0.00 | 0.09 | 0.09 | 89 | 1003.9 |
| 20260830124503 | 63 | 149 | 6.1 | 14.8 | 0.00 | 0.09 | 0.09 | 90 | 1003.9 |
| 20260830123603 | 62 | 155 | 7.0 | 13.9 | 0.00 | 0.09 | 0.09 | 90 | 1003.9 |
| 20260830122703 | 62 | 152 | 6.1 | 11.3 | 0.00 | 0.09 | 0.09 | 91 | 1004.0 |
| 20260830121803 | 61 | 153 | 6.1 | 12.2 | 0.00 | 0.09 | 0.09 | 92 | 1004.1 |
| 20260830120903 | 61 | 149 | 6.1 | 10.4 | 0.00 | 0.09 | 0.09 | 92 | 1004.1 |
| 20260830120004 | 61 | 149 | 6.1 | 11.3 | 0.00 | 0.09 | 0.09 | 92 | 1004.1 |
| 20260830115403 | 61 | 151 | 7.0 | 11.3 | 0.00 | 0.09 | 0.09 | 93 | 1004.1 |
| 20260830114504 | 61 | 154 | 6.1 | 12.2 | 0.00 | 0.09 | 0.09 | 94 | 1004.1 |
| 20260830113603 | 60 | 156 | 5.2 | 11.3 | 0.00 | 0.09 | 0.09 | 94 | 1004.2 |
| 20260830112724 | 60 | 153 | 7.0 | 13.0 | 0.00 | 0.09 | 0.09 | 95 | 1004.2 |
| 20260830111803 | 60 | 153 | 7.8 | 13.0 | 0.00 | 0.09 | 0.09 | 95 | 1004.3 |
| 20260830110903 | 59 | 149 | 6.1 | 14.8 | 0.00 | 0.09 | 0.09 | 95 | 1004.3 |
| 20260830110024 | 59 | 151 | 6.1 | 13.0 | 0.00 | 0.09 | 0.09 | 95 | 1004.4 |
| 20260830105404 | 59 | 151 | 6.1 | 12.2 | 0.00 | 0.09 | 0.09 | 95 | 1004.4 |
| 20260830104504 | 59 | 152 | 6.1 | 12.2 | 0.00 | 0.09 | 0.09 | 95 | 1004.4 |
| 20260830103624 | 59 | 154 | 7.8 | 13.0 | 0.00 | 0.09 | 0.09 | 95 | 1004.2 |
| 20260830102703 | 59 | 156 | 7.0 | 13.9 | 0.00 | 0.09 | 0.09 | 95 | 1004.2 |
| 20260830101803 | 58 | 157 | 7.0 | 11.3 | 0.00 | 0.09 | 0.09 | 95 | 1004.2 |
| 20260830100903 | 58 | 154 | 7.0 | 14.8 | 0.00 | 0.09 | 0.09 | 95 | 1004.1 |
| 20260830100004 | 58 | 154 | 7.0 | 11.3 | 0.01 | 0.09 | 0.09 | 95 | 1004.1 |
| 20260830095424 | 58 | 157 | 6.1 | 13.9 | 0.01 | 0.09 | 0.09 | 95 | 1004.1 |
| 20260830094503 | 58 | 152 | 7.0 | 13.9 | 0.01 | 0.09 | 0.09 | 95 | 1004.0 |
| 20260830093603 | 58 | 153 | 7.8 | 13.9 | 0.01 | 0.09 | 0.09 | 95 | 1004.1 |
| 20260830092703 | 58 | 147 | 7.8 | 13.9 | 0.01 | 0.09 | 0.09 | 95 | 1004.0 |
| 20260830091803 | 57 | 148 | 7.8 | 14.8 | 0.01 | 0.09 | 0.09 | 95 | 1004.0 |
| 20260830090903 | 57 | 149 | 7.8 | 13.9 | 0.01 | 0.09 | 0.09 | 95 | 1004.0 |
| 20260830090004 | 57 | 147 | 7.8 | 13.9 | 0.00 | 0.08 | 0.08 | 95 | 1004.0 |
| 20260830085403 | 57 | 146 | 8.7 | 13.9 | 0.00 | 0.08 | 0.08 | 95 | 1004.0 |
| 20260830084503 | 57 | 145 | 7.0 | 14.8 | 0.00 | 0.08 | 0.08 | 95 | 1004.0 |
| 20260830083603 | 57 | 144 | 7.8 | 15.6 | 0.00 | 0.08 | 0.08 | 95 | 1003.9 |
| 20260830082703 | 57 | 139 | 7.8 | 13.9 | 0.00 | 0.08 | 0.08 | 95 | 1004.0 |
| 20260830081803 | 57 | 142 | 8.7 | 15.6 | 0.00 | 0.08 | 0.08 | 95 | 1004.0 |
| 20260830080903 | 57 | 142 | 7.8 | 14.8 | 0.01 | 0.08 | 0.08 | 95 | 1004.0 |